Satellite-Ground Cal/Val Region Overpasses Predictions

Prediction of Satellite NPP Overpassing Cal/Val Region: PacNW

Region Location: (Latitude: 10.00, Longitude: 139.50) to (Latitude: 22.70, Longitude: 165.60).

Table of predicted overpasses for the next 14.0 days since TLE Epoch: 1/4/2020
Interval Starting Time Starting Location Ending Time Ending Location
1 01/05/2020 02:14:21 ( 12.95, 165.60) 01/05/2020 02:17:07 ( 22.69, 163.26)
2 01/05/2020 03:55:01 ( 10.02, 140.90) 01/05/2020 03:56:43 ( 16.01, 139.51)
3 01/05/2020 14:45:24 ( 22.68, 163.51) 01/05/2020 14:49:00 ( 10.00, 160.49)
4 01/06/2020 03:35:59 ( 10.03, 145.66) 01/06/2020 03:39:34 ( 22.65, 142.66)
5 01/06/2020 14:29:31 ( 11.52, 165.60) 01/06/2020 14:29:56 ( 10.05, 165.26)
6 01/06/2020 16:07:51 ( 22.67, 142.89) 01/06/2020 16:11:26 ( 10.04, 139.89)
7 01/07/2020 03:16:56 ( 10.04, 150.41) 01/07/2020 03:20:31 ( 22.66, 147.41)
8 01/07/2020 15:48:49 ( 22.66, 147.64) 01/07/2020 15:52:24 ( 10.04, 144.64)
9 01/08/2020 02:57:54 ( 10.05, 155.17) 01/08/2020 03:01:29 ( 22.67, 152.17)
10 01/08/2020 15:29:46 ( 22.65, 152.40) 01/08/2020 15:33:21 ( 10.03, 149.40)
11 01/09/2020 02:38:51 ( 10.06, 159.93) 01/09/2020 02:42:26 ( 22.68, 156.93)
12 01/09/2020 15:10:43 ( 22.70, 157.17) 01/09/2020 15:14:19 ( 10.02, 154.16)
13 01/10/2020 02:19:48 ( 10.01, 164.70) 01/10/2020 02:23:24 ( 22.69, 161.69)
14 01/10/2020 14:51:40 ( 22.69, 161.93) 01/10/2020 14:55:16 ( 10.01, 158.92)
15 01/11/2020 03:42:15 ( 10.03, 144.08) 01/11/2020 03:45:50 ( 22.65, 141.08)
16 01/11/2020 14:33:54 ( 18.22, 165.60) 01/11/2020 14:36:13 ( 10.06, 163.69)
17 01/11/2020 16:14:08 ( 22.67, 141.31) 01/11/2020 16:16:15 ( 15.22, 139.51)
18 01/12/2020 03:23:13 ( 10.04, 148.84) 01/12/2020 03:26:48 ( 22.66, 145.84)
19 01/12/2020 15:55:05 ( 22.66, 146.07) 01/12/2020 15:58:40 ( 10.04, 143.07)
20 01/13/2020 03:04:10 ( 10.05, 153.60) 01/13/2020 03:07:45 ( 22.67, 150.60)
21 01/13/2020 15:36:03 ( 22.65, 150.83) 01/13/2020 15:39:38 ( 10.03, 147.83)
22 01/14/2020 02:45:07 ( 10.00, 158.37) 01/14/2020 02:48:43 ( 22.69, 155.35)
23 01/14/2020 15:17:00 ( 22.69, 155.60) 01/14/2020 15:20:36 ( 10.02, 152.59)
24 01/15/2020 02:26:04 ( 10.01, 163.13) 01/15/2020 02:29:40 ( 22.70, 160.11)
25 01/15/2020 14:57:57 ( 22.68, 160.36) 01/15/2020 15:01:33 ( 10.01, 157.34)
26 01/16/2020 02:09:48 ( 19.78, 165.59) 01/16/2020 02:10:37 ( 22.65, 164.88)
27 01/16/2020 03:48:32 ( 10.04, 142.51) 01/16/2020 03:52:07 ( 22.66, 139.51)
28 01/16/2020 14:38:55 ( 22.67, 165.11) 01/16/2020 14:42:30 ( 10.05, 162.11)
29 01/16/2020 16:20:25 ( 22.66, 139.74) 01/16/2020 16:20:41 ( 21.73, 139.50)
30 01/17/2020 03:29:29 ( 10.05, 147.27) 01/17/2020 03:33:04 ( 22.67, 144.26)
31 01/17/2020 16:01:22 ( 22.65, 144.50) 01/17/2020 16:04:57 ( 10.03, 141.50)
32 01/18/2020 03:10:26 ( 10.00, 152.04) 01/18/2020 03:14:02 ( 22.69, 149.02)


NCC Satellite Cal/Val Overpasses Prediction Service
